UAL645 KDEN-KFSD

Flight info

Callsign UAL645
Flight time 1h 2m
Altitude 39000
Route CHUWY1 CHUWY FSD
Aircraft B738/M-SDE2E3FGHIRWXY/LB1

Departure

Time 2026-04-26 21:35
Airport Denver International Airport (KDEN)

Arrival

Time 2026-04-26 22:37
Airport Sioux Falls Regional Airport (KFSD)
Time Latitude Longitude Altitude Speed Heading
2026-04-26 21:05 39.85343 -104.67879 5359 ft 0 kts 359°
2026-04-26 21:24 39.85340 -104.67879 5358 ft 2 kts 360°
2026-04-26 21:25 39.85325 -104.67879 5358 ft 2 kts 358°
2026-04-26 21:25 39.85310 -104.67879 5357 ft 2 kts 359°
2026-04-26 21:25 39.85295 -104.67879 5357 ft 2 kts 359°
2026-04-26 21:25 39.85283 -104.67879 5356 ft 0 kts 359°
2026-04-26 21:30 39.85286 -104.67883 5356 ft 1 kts 317°
2026-04-26 21:30 39.85286 -104.67887 5356 ft 0 kts 266°
2026-04-26 21:31 39.85283 -104.67904 5354 ft 5 kts 246°
2026-04-26 21:31 39.85260 -104.67975 5349 ft 11 kts 249°
2026-04-26 21:32 39.85241 -104.68095 5340 ft 16 kts 269°
2026-04-26 21:32 39.85228 -104.68227 5330 ft 12 kts 253°
2026-04-26 21:32 39.85209 -104.68349 5323 ft 15 kts 265°
2026-04-26 21:32 39.85207 -104.68516 5311 ft 21 kts 270°
2026-04-26 21:33 39.85207 -104.68733 5299 ft 25 kts 270°
2026-04-26 21:33 39.85204 -104.68976 5289 ft 28 kts 265°
2026-04-26 21:33 39.85198 -104.69222 5287 ft 26 kts 270°
2026-04-26 21:33 39.85204 -104.69447 5294 ft 22 kts 273°
2026-04-26 21:34 39.85208 -104.69617 5299 ft 15 kts 289°
2026-04-26 21:34 39.85284 -104.69658 5297 ft 14 kts
2026-04-26 21:34 39.85502 -104.69655 5284 ft 64 kts 359°
2026-04-26 21:34 39.86189 -104.69643 5266 ft 131 kts
2026-04-26 21:35 39.87292 -104.69655 5343 ft 178 kts
2026-04-26 21:35 39.88508 -104.69685 6096 ft 175 kts
2026-04-26 21:35 39.89767 -104.69634 6643 ft 191 kts
2026-04-26 21:35 39.91125 -104.69572 7201 ft 202 kts
2026-04-26 21:36 39.92587 -104.69532 7624 ft 218 kts
2026-04-26 21:36 39.94163 -104.69462 8082 ft 233 kts
2026-04-26 21:36 39.95705 -104.68677 8522 ft 245 kts 34°
2026-04-26 21:36 39.97152 -104.67385 8945 ft 260 kts 33°
2026-04-26 21:37 39.98717 -104.66166 9529 ft 268 kts 30°
2026-04-26 21:37 40.00370 -104.64966 10152 ft 274 kts 30°
2026-04-26 21:37 40.02063 -104.63753 10738 ft 280 kts 30°
2026-04-26 21:37 40.03770 -104.62536 11381 ft 283 kts 30°
2026-04-26 21:38 40.05503 -104.61299 11997 ft 286 kts 29°
2026-04-26 21:38 40.07268 -104.60040 12570 ft 291 kts 29°
2026-04-26 21:38 40.09057 -104.58763 13111 ft 296 kts 29°
2026-04-26 21:38 40.10881 -104.57460 13620 ft 303 kts 28°
2026-04-26 21:39 40.12751 -104.56124 14100 ft 312 kts 28°
2026-04-26 21:39 40.14674 -104.54748 14562 ft 324 kts 28°
2026-04-26 21:39 40.16723 -104.53284 14855 ft 343 kts 27°
2026-04-26 21:39 40.18856 -104.51758 15132 ft 361 kts 27°
2026-04-26 21:40 40.21124 -104.50134 15409 ft 379 kts 27°
2026-04-26 21:40 40.23484 -104.48444 15682 ft 397 kts 27°
2026-04-26 21:40 40.25944 -104.46680 15963 ft 413 kts 27°
2026-04-26 21:40 40.28541 -104.44820 16267 ft 428 kts 27°
2026-04-26 21:41 40.31156 -104.42941 16675 ft 437 kts 27°
2026-04-26 21:41 40.33836 -104.41009 17265 ft 442 kts 27°
2026-04-26 21:41 40.36556 -104.39048 17825 ft 446 kts 27°
2026-04-26 21:41 40.39296 -104.37071 18399 ft 450 kts 27°
2026-04-26 21:42 40.42033 -104.35094 18958 ft 454 kts 26°
2026-04-26 21:42 40.44812 -104.33087 19503 ft 458 kts 27°
2026-04-26 21:42 40.47632 -104.31049 20031 ft 462 kts 27°
2026-04-26 21:42 40.50429 -104.29024 20577 ft 466 kts 27°
2026-04-26 21:43 40.53269 -104.26950 21126 ft 469 kts 28°
2026-04-26 21:43 40.56050 -104.24603 21664 ft 473 kts 34°
2026-04-26 21:43 40.58643 -104.21989 22184 ft 476 kts 40°
2026-04-26 21:43 40.61066 -104.18996 22701 ft 479 kts 45°
2026-04-26 21:44 40.63391 -104.15800 23217 ft 482 kts 47°
2026-04-26 21:44 40.65634 -104.12602 23718 ft 484 kts 48°
2026-04-26 21:44 40.67916 -104.09316 24221 ft 487 kts 48°
2026-04-26 21:44 40.70195 -104.06027 24728 ft 489 kts 48°
2026-04-26 21:45 40.72497 -104.02708 25233 ft 492 kts 48°
2026-04-26 21:45 40.74818 -103.99364 25730 ft 494 kts 48°
2026-04-26 21:45 40.77127 -103.96040 26215 ft 496 kts 48°
2026-04-26 21:45 40.79472 -103.92664 26691 ft 499 kts 48°
2026-04-26 21:46 40.81822 -103.89280 27159 ft 502 kts 48°
2026-04-26 21:46 40.84154 -103.85921 27614 ft 504 kts 48°
2026-04-26 21:46 40.86520 -103.82510 28069 ft 507 kts 48°
2026-04-26 21:46 40.88909 -103.79062 28573 ft 507 kts 48°
2026-04-26 21:47 40.91274 -103.75647 29203 ft 504 kts 48°
2026-04-26 21:47 40.93633 -103.72236 29797 ft 502 kts 48°
2026-04-26 21:47 40.95978 -103.68842 30375 ft 500 kts 48°
2026-04-26 21:47 40.98326 -103.65441 30956 ft 498 kts 47°
2026-04-26 21:48 41.00643 -103.62080 31519 ft 497 kts 47°
2026-04-26 21:48 41.02956 -103.58720 32078 ft 495 kts 47°
2026-04-26 21:48 41.05278 -103.55344 32653 ft 494 kts 47°
2026-04-26 21:48 41.07592 -103.51976 33093 ft 494 kts 47°
2026-04-26 21:49 41.09873 -103.48653 33517 ft 494 kts 47°
2026-04-26 21:49 41.12205 -103.45251 33933 ft 494 kts 47°
2026-04-26 21:49 41.14507 -103.41888 34336 ft 494 kts 47°
2026-04-26 21:49 41.16825 -103.38500 34710 ft 494 kts 47°
2026-04-26 21:50 41.19134 -103.35120 35076 ft 494 kts 47°
2026-04-26 21:50 41.21477 -103.31688 35427 ft 494 kts 47°
2026-04-26 21:50 41.23795 -103.28288 35762 ft 494 kts 47°
2026-04-26 21:50 41.26114 -103.24881 35999 ft 494 kts 47°
2026-04-26 21:51 41.28423 -103.21487 36227 ft 494 kts 47°
2026-04-26 21:51 41.30727 -103.18096 36449 ft 494 kts 47°
2026-04-26 21:51 41.33068 -103.14647 36655 ft 495 kts 47°
2026-04-26 21:51 41.35379 -103.11239 36839 ft 495 kts 47°
2026-04-26 21:52 41.37684 -103.07834 37016 ft 496 kts 47°
2026-04-26 21:52 41.40011 -103.04394 37189 ft 497 kts 47°
2026-04-26 21:52 41.42326 -103.00968 37358 ft 497 kts 47°
2026-04-26 21:52 41.44655 -102.97517 37526 ft 498 kts 47°
2026-04-26 21:53 41.46976 -102.94074 37690 ft 498 kts 47°
2026-04-26 21:53 41.49171 -102.90530 37841 ft 499 kts 53°
2026-04-26 21:53 41.51129 -102.86714 37995 ft 500 kts 57°
2026-04-26 21:53 41.52926 -102.82722 38140 ft 501 kts 60°
2026-04-26 21:54 41.54592 -102.78619 38286 ft 501 kts 63°
2026-04-26 21:54 41.56195 -102.74547 38431 ft 502 kts 62°
2026-04-26 21:54 41.57838 -102.70406 38576 ft 503 kts 62°
2026-04-26 21:54 41.59477 -102.66264 38717 ft 504 kts 62°
2026-04-26 21:55 41.62729 -102.57972 38786 ft 507 kts 63°
2026-04-26 21:55 41.65981 -102.49590 38795 ft 506 kts 63°
2026-04-26 21:56 41.69188 -102.41267 38798 ft 504 kts 63°
2026-04-26 21:56 41.72386 -102.32928 38797 ft 504 kts 64°
2026-04-26 21:57 41.75581 -102.24565 38799 ft 503 kts 64°
2026-04-26 21:57 41.78751 -102.16245 38799 ft 503 kts 64°
2026-04-26 21:58 41.81920 -102.07900 38800 ft 502 kts 64°
2026-04-26 21:58 41.85061 -101.99605 38798 ft 502 kts 64°
2026-04-26 21:59 41.88224 -101.91228 38799 ft 502 kts 64°
2026-04-26 21:59 41.91366 -101.82882 38800 ft 502 kts 64°
2026-04-26 22:00 41.94524 -101.74469 38804 ft 502 kts 64°
2026-04-26 22:00 41.97636 -101.66156 38808 ft 502 kts 64°
2026-04-26 22:01 42.00779 -101.57736 38815 ft 502 kts 64°
2026-04-26 22:01 42.03889 -101.49377 38830 ft 502 kts 64°
2026-04-26 22:02 42.07010 -101.40965 38837 ft 502 kts 64°
2026-04-26 22:02 42.10129 -101.32535 38839 ft 501 kts 65°
2026-04-26 22:03 42.13207 -101.24190 38841 ft 500 kts 65°
2026-04-26 22:03 42.16285 -101.15818 38844 ft 500 kts 65°
2026-04-26 22:04 42.19372 -101.07399 38844 ft 500 kts 65°
2026-04-26 22:04 42.22442 -100.99003 38843 ft 500 kts 65°
2026-04-26 22:05 42.25516 -100.90571 38839 ft 499 kts 65°
2026-04-26 22:05 42.28559 -100.82198 38835 ft 499 kts 65°
2026-04-26 22:06 42.31606 -100.73789 38834 ft 498 kts 65°
2026-04-26 22:06 42.34642 -100.65384 38832 ft 498 kts 65°
2026-04-26 22:07 42.37686 -100.56934 38832 ft 498 kts 65°
2026-04-26 22:07 42.40710 -100.48515 38831 ft 498 kts 65°
2026-04-26 22:08 42.43742 -100.40045 38832 ft 498 kts 65°
2026-04-26 22:08 42.46743 -100.31637 38832 ft 498 kts 65°
2026-04-26 22:09 42.49759 -100.23162 38834 ft 498 kts 65°
2026-04-26 22:09 42.52766 -100.14687 38835 ft 498 kts 65°
2026-04-26 22:10 42.55765 -100.06209 38836 ft 498 kts 65°
2026-04-26 22:10 42.58753 -99.97738 38837 ft 498 kts 65°
2026-04-26 22:11 42.61745 -99.89230 38837 ft 498 kts 65°
2026-04-26 22:11 42.64716 -99.80753 38851 ft 498 kts 65°
2026-04-26 22:12 42.67692 -99.72237 38854 ft 499 kts 65°
2026-04-26 22:12 42.70679 -99.63663 38848 ft 498 kts 65°
2026-04-26 22:13 42.73630 -99.55168 38850 ft 497 kts 65°
2026-04-26 22:13 42.76581 -99.46643 38854 ft 497 kts 65°
2026-04-26 22:14 42.79514 -99.38148 38858 ft 497 kts 65°
2026-04-26 22:14 42.82444 -99.29630 38861 ft 496 kts 66°
2026-04-26 22:15 42.85363 -99.21122 38833 ft 498 kts 66°
2026-04-26 22:15 42.86833 -99.16827 38529 ft 504 kts 66°
2026-04-26 22:15 42.88312 -99.12495 38038 ft 507 kts 66°
2026-04-26 22:16 42.89810 -99.08106 37536 ft 507 kts 66°
2026-04-26 22:16 42.91279 -99.03793 37038 ft 507 kts 66°
2026-04-26 22:16 42.92765 -98.99426 36500 ft 506 kts 66°
2026-04-26 22:16 42.94246 -98.95065 35930 ft 506 kts 66°
2026-04-26 22:17 42.95710 -98.90746 35361 ft 505 kts 66°
2026-04-26 22:17 42.97195 -98.86359 34780 ft 503 kts 66°
2026-04-26 22:17 42.98656 -98.82037 34171 ft 502 kts 66°
2026-04-26 22:17 43.00099 -98.77760 33537 ft 500 kts 67°
2026-04-26 22:18 43.01557 -98.73434 32894 ft 498 kts 67°
2026-04-26 22:18 43.03007 -98.69124 32250 ft 496 kts 67°
2026-04-26 22:18 43.04448 -98.64832 31545 ft 494 kts 67°
2026-04-26 22:18 43.05878 -98.60568 30792 ft 492 kts 67°
2026-04-26 22:19 43.07284 -98.56369 30089 ft 490 kts 67°
2026-04-26 22:19 43.08710 -98.52101 29389 ft 488 kts 67°
2026-04-26 22:19 43.10104 -98.47926 28690 ft 485 kts 67°
2026-04-26 22:19 43.11502 -98.43729 27977 ft 482 kts 67°
2026-04-26 22:20 43.12884 -98.39577 27271 ft 479 kts 67°
2026-04-26 22:20 43.14259 -98.35438 26566 ft 476 kts 67°
2026-04-26 22:20 43.15625 -98.31319 25861 ft 473 kts 68°
2026-04-26 22:20 43.16968 -98.27264 25157 ft 470 kts 68°
2026-04-26 22:21 43.18304 -98.23222 24469 ft 466 kts 68°
2026-04-26 22:21 43.19632 -98.19204 23972 ft 456 kts 68°
2026-04-26 22:21 43.20920 -98.15302 23609 ft 444 kts 68°
2026-04-26 22:21 43.22174 -98.11498 23259 ft 433 kts 68°
2026-04-26 22:22 43.23398 -98.07776 22745 ft 428 kts 68°
2026-04-26 22:22 43.24613 -98.04071 22179 ft 425 kts 68°
2026-04-26 22:22 43.25808 -98.00421 21657 ft 422 kts 68°
2026-04-26 22:22 43.27004 -97.96765 21147 ft 419 kts 68°
2026-04-26 22:23 43.28184 -97.93154 20639 ft 416 kts 68°
2026-04-26 22:23 43.29363 -97.89539 20129 ft 413 kts 68°
2026-04-26 22:23 43.30525 -97.85975 19610 ft 410 kts 68°
2026-04-26 22:23 43.31673 -97.82447 19087 ft 407 kts 68°
2026-04-26 22:24 43.32822 -97.78915 18560 ft 404 kts 68°
2026-04-26 22:24 43.33956 -97.75420 18057 ft 400 kts 68°
2026-04-26 22:24 43.35083 -97.71941 17550 ft 396 kts 68°
2026-04-26 22:24 43.36190 -97.68521 17050 ft 392 kts 68°
2026-04-26 22:25 43.37292 -97.65115 16547 ft 389 kts 68°
2026-04-26 22:25 43.38384 -97.61733 16064 ft 385 kts 68°
2026-04-26 22:25 43.39453 -97.58419 15590 ft 381 kts 68°
2026-04-26 22:25 43.40521 -97.55108 15113 ft 378 kts 69°
2026-04-26 22:26 43.41580 -97.51816 14634 ft 374 kts 69°
2026-04-26 22:26 43.42625 -97.48569 14143 ft 367 kts 69°
2026-04-26 22:26 43.43636 -97.45422 13670 ft 357 kts 69°
2026-04-26 22:26 43.44622 -97.42351 13195 ft 349 kts 69°
2026-04-26 22:27 43.45593 -97.39320 12716 ft 341 kts 69°
2026-04-26 22:27 43.46537 -97.36369 12273 ft 334 kts 70°
2026-04-26 22:27 43.47456 -97.33496 11846 ft 326 kts 71°
2026-04-26 22:27 43.48362 -97.30656 11417 ft 319 kts 71°
2026-04-26 22:28 43.49213 -97.27902 11000 ft 312 kts 76°
2026-04-26 22:28 43.49527 -97.25043 10575 ft 294 kts 101°
2026-04-26 22:28 43.49001 -97.22427 10175 ft 277 kts 120°
2026-04-26 22:28 43.48163 -97.20106 9775 ft 270 kts 123°
2026-04-26 22:29 43.47309 -97.17847 9374 ft 264 kts 123°
2026-04-26 22:29 43.46466 -97.15641 8974 ft 260 kts 123°
2026-04-26 22:29 43.45619 -97.13457 8572 ft 256 kts 123°
2026-04-26 22:29 43.44775 -97.11308 8171 ft 253 kts 123°
2026-04-26 22:30 43.43938 -97.09204 7836 ft 249 kts 122°
2026-04-26 22:30 43.43111 -97.07149 7491 ft 247 kts 122°
2026-04-26 22:30 43.42279 -97.05112 7189 ft 244 kts 122°
2026-04-26 22:30 43.41443 -97.03094 6892 ft 243 kts 122°
2026-04-26 22:31 43.40602 -97.01090 6519 ft 241 kts 122°
2026-04-26 22:31 43.39751 -96.99099 5955 ft 243 kts 122°
2026-04-26 22:31 43.38990 -96.97053 5477 ft 244 kts 107°
2026-04-26 22:31 43.38947 -96.94743 5107 ft 246 kts 77°
2026-04-26 22:32 43.39705 -96.92635 4795 ft 247 kts 56°
2026-04-26 22:32 43.40919 -96.90990 4521 ft 246 kts 40°
2026-04-26 22:32 43.42287 -96.89657 4442 ft 234 kts 38°
2026-04-26 22:32 43.43582 -96.88411 4412 ft 218 kts 38°
2026-04-26 22:33 43.44778 -96.87265 4335 ft 204 kts 38°
2026-04-26 22:33 43.47025 -96.85122 3927 ft 192 kts 40°
2026-04-26 22:33 43.48105 -96.84105 3662 ft 185 kts 39°
2026-04-26 22:34 43.49124 -96.83133 3408 ft 171 kts 40°
2026-04-26 22:34 43.50070 -96.82225 3178 ft 160 kts 39°
2026-04-26 22:34 43.50956 -96.81387 2978 ft 148 kts 40°
2026-04-26 22:34 43.51765 -96.80610 2793 ft 140 kts 40°
2026-04-26 22:35 43.52579 -96.79836 2576 ft 142 kts 39°
2026-04-26 22:35 43.53391 -96.79057 2369 ft 141 kts 38°
2026-04-26 22:35 43.54184 -96.78301 2198 ft 139 kts 40°
2026-04-26 22:35 43.54963 -96.77553 1992 ft 136 kts 38°
2026-04-26 22:36 43.55738 -96.76828 1830 ft 134 kts 38°
2026-04-26 22:36 43.56497 -96.76112 1666 ft 130 kts 39°
2026-04-26 22:36 43.57228 -96.75410 1474 ft 127 kts 37°
2026-04-26 22:36 43.57916 -96.74739 1426 ft 100 kts 33°
2026-04-26 22:37 43.58338 -96.74338 1426 ft 55 kts 33°
2026-04-26 22:37 43.58609 -96.74047 1429 ft 33 kts 53°
2026-04-26 22:37 43.58576 -96.73960 1429 ft 7 kts 154°
2026-04-26 22:37 43.58530 -96.73932 1429 ft 8 kts 156°
2026-04-26 22:38 43.58446 -96.73882 1429 ft 18 kts 156°
2026-04-26 22:38 43.58306 -96.73796 1428 ft 23 kts 157°
2026-04-26 22:38 43.58159 -96.73704 1425 ft 22 kts 153°
2026-04-26 22:38 43.58045 -96.73622 1425 ft 11 kts 141°
2026-04-26 22:39 43.58036 -96.73537 1425 ft 8 kts 66°
2026-04-26 22:39 43.58076 -96.73483 1425 ft 7 kts 35°
2026-04-26 22:39 43.58110 -96.73438 1425 ft 5 kts 68°
2026-04-26 22:39 43.58096 -96.73406 1425 ft 3 kts 155°
2026-04-26 22:40 43.58083 -96.73402 1425 ft 0 kts 165°